contact:dominique.lefevre@mio.osupytheas.fr, maurice.libes@osupytheas.fr, didier.mallarino@osupytheas.fr
Project:EMSO http://www.emso-fr.org/EMSO-France
Depth: 2436.0 m
Title:EMSO Ligure Ouest : Data MII capteur MICROCAT
DateTime_Computer,Latitude,Longitude,Temperature,Conductivity,Pressure,DateTime_Instrument
DateTime_Computer,Latitude,Longitude,degC,S m-1,dbar,DateTime_Instrument
2021-09-13T00:02:44Z,42.805,6.029,13.2991,4.60026,2470.511,2021-9-13T02:04:05Z
2021-09-13T00:05:47Z,42.805,6.029,13.2993,4.60024,2470.437,2021-9-13T02:07:08Z
2021-09-13T00:08:50Z,42.805,6.029,13.2991,4.60017,2470.497,2021-9-13T02:10:11Z
2021-09-13T00:11:53Z,42.805,6.029,13.2998,4.60026,2470.45,2021-9-13T02:13:14Z
2021-09-13T00:14:56Z,42.805,6.029,13.2998,4.60026,2470.483,2021-9-13T02:16:17Z
2021-09-13T00:17:59Z,42.805,6.029,13.2998,4.60026,2470.483,2021-9-13T02:19:20Z
2021-09-13T00:21:02Z,42.805,6.029,13.2999,4.60022,2470.46,2021-9-13T02:22:23Z
2021-09-13T00:24:06Z,42.805,6.029,13.2998,4.60031,2470.46,2021-9-13T02:25:26Z
2021-09-13T00:27:09Z,42.805,6.029,13.2997,4.60023,2470.46,2021-9-13T02:28:30Z
2021-09-13T00:30:12Z,42.805,6.029,13.2998,4.60026,2470.474,2021-9-13T02:31:33Z
2021-09-13T00:33:15Z,42.805,6.029,13.2996,4.60034,2470.437,2021-9-13T02:34:36Z
2021-09-13T00:36:18Z,42.805,6.029,13.2993,4.60020,2470.474,2021-9-13T02:37:39Z
2021-09-13T00:39:21Z,42.805,6.029,13.3000,4.60027,2470.474,2021-9-13T02:40:42Z
2021-09-13T00:42:24Z,42.805,6.029,13.3004,4.60031,2470.483,2021-9-13T02:43:45Z
2021-09-13T00:45:27Z,42.805,6.029,13.2997,4.60029,2470.474,2021-9-13T02:46:48Z
2021-09-13T00:48:31Z,42.805,6.029,13.2997,4.60033,2470.427,2021-9-13T02:49:51Z
2021-09-13T00:51:34Z,42.805,6.029,13.2995,4.60029,2470.474,2021-9-13T02:52:54Z
2021-09-13T00:54:37Z,42.805,6.029,13.2996,4.60026,2470.474,2021-9-13T02:55:58Z
2021-09-13T00:57:40Z,42.805,6.029,13.2996,4.60023,2470.437,2021-9-13T02:59:01Z
2021-09-13T01:00:43Z,42.805,6.029,13.2996,4.60029,2470.483,2021-9-13T03:02:04Z
2021-09-13T01:03:46Z,42.805,6.029,13.2995,4.60032,2470.45,2021-9-13T03:05:07Z
2021-09-13T01:06:49Z,42.805,6.029,13.2996,4.60035,2470.46,2021-9-13T03:08:10Z
2021-09-13T01:09:52Z,42.805,6.029,13.2993,4.60026,2470.46,2021-9-13T03:11:13Z
2021-09-13T01:12:56Z,42.805,6.029,13.2998,4.60026,2470.45,2021-9-13T03:14:16Z
2021-09-13T01:15:59Z,42.805,6.029,13.3003,4.60021,2470.437,2021-9-13T03:17:19Z
2021-09-13T01:19:02Z,42.805,6.029,13.2999,4.60032,2470.404,2021-9-13T03:20:23Z
2021-09-13T01:22:05Z,42.805,6.029,13.2996,4.60017,2470.413,2021-9-13T03:23:26Z
2021-09-13T01:25:08Z,42.805,6.029,13.2995,4.60016,2470.474,2021-9-13T03:26:29Z
2021-09-13T01:28:11Z,42.805,6.029,13.2998,4.60025,2470.474,2021-9-13T03:29:32Z
2021-09-13T01:31:14Z,42.805,6.029,13.2994,4.60027,2470.437,2021-9-13T03:32:35Z
2021-09-13T01:34:17Z,42.805,6.029,13.2996,4.60019,2470.474,2021-9-13T03:35:38Z
2021-09-13T01:37:21Z,42.805,6.029,13.3000,4.60022,2470.46,2021-9-13T03:38:41Z
2021-09-13T01:40:24Z,42.805,6.029,13.2998,4.60029,2470.45,2021-9-13T03:41:44Z
2021-09-13T01:43:27Z,42.805,6.029,13.2991,4.60024,2470.45,2021-9-13T03:44:48Z
2021-09-13T01:46:30Z,42.805,6.029,13.2997,4.60029,2470.45,2021-9-13T03:47:51Z
2021-09-13T01:49:33Z,42.805,6.029,13.2993,4.60019,2470.413,2021-9-13T03:50:54Z
2021-09-13T01:52:36Z,42.805,6.029,13.2995,4.60026,2470.413,2021-9-13T03:53:57Z
2021-09-13T01:55:39Z,42.805,6.029,13.2998,4.60032,2470.413,2021-9-13T03:57:00Z
2021-09-13T01:58:42Z,42.805,6.029,13.2997,4.60035,2470.413,2021-9-13T04:00:03Z
2021-09-13T02:01:46Z,42.805,6.029,13.2994,4.60021,2470.39,2021-9-13T04:03:06Z
2021-09-13T02:04:49Z,42.805,6.029,13.2995,4.60025,2470.413,2021-9-13T04:06:09Z
2021-09-13T02:07:52Z,42.805,6.029,13.3006,4.60031,2470.437,2021-9-13T04:09:13Z
2021-09-13T02:10:55Z,42.805,6.029,13.3000,4.60026,2470.45,2021-9-13T04:12:16Z
2021-09-13T02:13:58Z,42.805,6.029,13.2999,4.60033,2470.437,2021-9-13T04:15:19Z
2021-09-13T02:17:01Z,42.805,6.029,13.2994,4.60019,2470.413,2021-9-13T04:18:22Z
2021-09-13T02:20:04Z,42.805,6.029,13.2996,4.60022,2470.427,2021-9-13T04:21:25Z
2021-09-13T02:23:07Z,42.805,6.029,13.2995,4.60021,2470.413,2021-9-13T04:24:28Z
2021-09-13T02:26:11Z,42.805,6.029,13.2991,4.60019,2470.404,2021-9-13T04:27:31Z
2021-09-13T02:29:14Z,42.805,6.029,13.2996,4.60016,2470.45,2021-9-13T04:30:34Z
2021-09-13T02:32:17Z,42.805,6.029,13.2994,4.60014,2470.427,2021-9-13T04:33:38Z
2021-09-13T02:35:20Z,42.805,6.029,13.2996,4.60016,2470.38,2021-9-13T04:36:41Z
2021-09-13T02:38:23Z,42.805,6.029,13.2999,4.60021,2470.427,2021-9-13T04:39:44Z
2021-09-13T02:41:26Z,42.805,6.029,13.2998,4.60017,2470.413,2021-9-13T04:42:47Z
2021-09-13T02:44:29Z,42.805,6.029,13.2994,4.60024,2470.413,2021-9-13T04:45:50Z
2021-09-13T02:47:32Z,42.805,6.029,13.2993,4.60017,2470.413,2021-9-13T04:48:53Z
2021-09-13T02:50:35Z,42.805,6.029,13.2998,4.60020,2470.404,2021-9-13T04:51:56Z
2021-09-13T02:53:39Z,42.805,6.029,13.2999,4.60031,2470.413,2021-9-13T04:54:59Z
2021-09-13T02:56:42Z,42.805,6.029,13.2995,4.60029,2470.39,2021-9-13T04:58:03Z
2021-09-13T02:59:45Z,42.805,6.029,13.2998,4.60031,2470.427,2021-9-13T05:01:06Z
2021-09-13T03:02:48Z,42.805,6.029,13.2992,4.60022,2470.39,2021-9-13T05:04:09Z
2021-09-13T03:05:51Z,42.805,6.029,13.2995,4.60026,2470.39,2021-9-13T05:07:12Z
2021-09-13T03:08:54Z,42.805,6.029,13.2999,4.60036,2470.366,2021-9-13T05:10:15Z
2021-09-13T03:11:57Z,42.805,6.029,13.3000,4.60024,2470.366,2021-9-13T05:13:18Z
2021-09-13T03:15:00Z,42.805,6.029,13.2998,4.60028,2470.366,2021-9-13T05:16:21Z
2021-09-13T03:18:04Z,42.805,6.029,13.3005,4.60038,2470.343,2021-9-13T05:19:24Z
2021-09-13T03:21:07Z,42.805,6.029,13.3003,4.60033,2470.366,2021-9-13T05:22:28Z
2021-09-13T03:24:10Z,42.805,6.029,13.2993,4.60028,2470.38,2021-9-13T05:25:31Z
2021-09-13T03:27:13Z,42.805,6.029,13.3004,4.60031,2470.39,2021-9-13T05:28:34Z
2021-09-13T03:30:16Z,42.805,6.029,13.2997,4.60028,2470.39,2021-9-13T05:31:37Z
2021-09-13T03:33:19Z,42.805,6.029,13.2997,4.60021,2470.366,2021-9-13T05:34:40Z
2021-09-13T03:36:22Z,42.805,6.029,13.2993,4.60026,2470.366,2021-9-13T05:37:43Z
2021-09-13T03:39:25Z,42.805,6.029,13.2998,4.60019,2470.366,2021-9-13T05:40:46Z
2021-09-13T03:42:29Z,42.805,6.029,13.3000,4.60018,2470.404,2021-9-13T05:43:49Z
2021-09-13T03:45:32Z,42.805,6.029,13.3000,4.60033,2470.404,2021-9-13T05:46:53Z
2021-09-13T03:48:35Z,42.805,6.029,13.2995,4.60029,2470.38,2021-9-13T05:49:56Z
2021-09-13T03:51:38Z,42.805,6.029,13.2998,4.60033,2470.38,2021-9-13T05:52:59Z
2021-09-13T03:54:41Z,42.805,6.029,13.3001,4.60031,2470.38,2021-9-13T05:56:02Z
2021-09-13T03:57:44Z,42.805,6.029,13.2996,4.60023,2470.39,2021-9-13T05:59:05Z
2021-09-13T04:00:47Z,42.805,6.029,13.2998,4.60032,2470.366,2021-9-13T06:02:08Z
2021-09-13T04:03:50Z,42.805,6.029,13.3000,4.60017,2470.357,2021-9-13T06:05:11Z
2021-09-13T04:06:54Z,42.805,6.029,13.2995,4.60035,2470.366,2021-9-13T06:08:14Z
2021-09-13T04:09:57Z,42.805,6.029,13.2991,4.60020,2470.39,2021-9-13T06:11:18Z
2021-09-13T04:13:00Z,42.805,6.029,13.2997,4.60028,2470.366,2021-9-13T06:14:21Z
2021-09-13T04:16:03Z,42.805,6.029,13.2992,4.60018,2470.39,2021-9-13T06:17:24Z
2021-09-13T04:19:06Z,42.805,6.029,13.3003,4.60031,2470.39,2021-9-13T06:20:27Z
2021-09-13T04:22:09Z,42.805,6.029,13.2999,4.60036,2470.39,2021-9-13T06:23:30Z
2021-09-13T04:25:12Z,42.805,6.029,13.2996,4.60022,2470.366,2021-9-13T06:26:33Z
2021-09-13T04:28:15Z,42.805,6.029,13.2993,4.60024,2470.38,2021-9-13T06:29:36Z
2021-09-13T04:31:19Z,42.805,6.029,13.3000,4.60032,2470.343,2021-9-13T06:32:39Z
2021-09-13T04:34:22Z,42.805,6.029,13.2996,4.60016,2470.366,2021-9-13T06:35:43Z
2021-09-13T04:37:25Z,42.805,6.029,13.2996,4.60024,2470.343,2021-9-13T06:38:46Z
2021-09-13T04:40:28Z,42.805,6.029,13.2996,4.60014,2470.366,2021-9-13T06:41:49Z
2021-09-13T04:43:31Z,42.805,6.029,13.2993,4.60016,2470.38,2021-9-13T06:44:52Z
2021-09-13T04:46:34Z,42.805,6.029,13.2996,4.60030,2470.343,2021-9-13T06:47:55Z
2021-09-13T04:49:37Z,42.805,6.029,13.2994,4.60025,2470.343,2021-9-13T06:50:58Z
2021-09-13T04:52:40Z,42.805,6.029,13.2995,4.60036,2470.38,2021-9-13T06:54:01Z
2021-09-13T04:55:44Z,42.805,6.029,13.2995,4.60019,2470.334,2021-9-13T06:57:04Z
2021-09-13T04:58:47Z,42.805,6.029,13.3000,4.60020,2470.343,2021-9-13T07:00:07Z
2021-09-13T05:01:50Z,42.805,6.029,13.2998,4.60027,2470.357,2021-9-13T07:03:11Z
2021-09-13T05:04:53Z,42.805,6.029,13.2993,4.60039,2470.357,2021-9-13T07:06:14Z
2021-09-13T05:07:56Z,42.805,6.029,13.2998,4.60037,2470.38,2021-9-13T07:09:17Z
2021-09-13T05:10:59Z,42.805,6.029,13.2996,4.60022,2470.357,2021-9-13T07:12:20Z
2021-09-13T05:14:02Z,42.805,6.029,13.2996,4.60019,2470.357,2021-9-13T07:15:23Z
2021-09-13T05:17:05Z,42.805,6.029,13.2998,4.60023,2470.343,2021-9-13T07:18:26Z
2021-09-13T05:20:08Z,42.805,6.029,13.2996,4.60026,2470.366,2021-9-13T07:21:29Z
2021-09-13T05:23:12Z,42.805,6.029,13.2995,4.60024,2470.366,2021-9-13T07:24:32Z
2021-09-13T05:26:15Z,42.805,6.029,13.2996,4.60022,2470.366,2021-9-13T07:27:36Z
2021-09-13T05:29:18Z,42.805,6.029,13.2997,4.60033,2470.38,2021-9-13T07:30:39Z
2021-09-13T05:32:21Z,42.805,6.029,13.3005,4.60033,2470.39,2021-9-13T07:33:42Z
2021-09-13T05:35:24Z,42.805,6.029,13.2997,4.60024,2470.39,2021-9-13T07:36:45Z
2021-09-13T05:38:27Z,42.805,6.029,13.3000,4.60032,2470.366,2021-9-13T07:39:48Z
2021-09-13T05:41:30Z,42.805,6.029,13.2998,4.60024,2470.366,2021-9-13T07:42:51Z
2021-09-13T05:44:34Z,42.805,6.029,13.2993,4.60029,2470.343,2021-9-13T07:45:54Z
2021-09-13T05:47:37Z,42.805,6.029,13.2995,4.60019,2470.343,2021-9-13T07:48:57Z
2021-09-13T05:50:40Z,42.805,6.029,13.2994,4.60026,2470.38,2021-9-13T07:52:01Z
2021-09-13T05:53:43Z,42.805,6.029,13.2999,4.60029,2470.366,2021-9-13T07:55:04Z
2021-09-13T05:56:46Z,42.805,6.029,13.2996,4.60028,2470.404,2021-9-13T07:58:07Z
2021-09-13T05:59:49Z,42.805,6.029,13.2989,4.60024,2470.343,2021-9-13T08:01:10Z
2021-09-13T06:02:52Z,42.805,6.029,13.2993,4.60020,2470.343,2021-9-13T08:04:13Z
2021-09-13T06:05:55Z,42.805,6.029,13.3001,4.60036,2470.38,2021-9-13T08:07:16Z
2021-09-13T06:08:58Z,42.805,6.029,13.2999,4.60029,2470.343,2021-9-13T08:10:19Z
2021-09-13T06:12:02Z,42.805,6.029,13.3004,4.60036,2470.38,2021-9-13T08:13:22Z
2021-09-13T06:15:05Z,42.805,6.029,13.2998,4.60026,2470.357,2021-9-13T08:16:26Z
2021-09-13T06:18:08Z,42.805,6.029,13.2999,4.60038,2470.357,2021-9-13T08:19:29Z
2021-09-13T06:21:11Z,42.805,6.029,13.3000,4.60029,2470.343,2021-9-13T08:22:32Z
2021-09-13T06:24:14Z,42.805,6.029,13.2993,4.60021,2470.366,2021-9-13T08:25:35Z
2021-09-13T06:27:17Z,42.805,6.029,13.3000,4.60029,2470.38,2021-9-13T08:28:38Z
2021-09-13T06:30:20Z,42.805,6.029,13.2998,4.60019,2470.366,2021-9-13T08:31:41Z
2021-09-13T06:33:23Z,42.805,6.029,13.2995,4.60021,2470.38,2021-9-13T08:34:44Z
2021-09-13T06:36:27Z,42.805,6.029,13.2995,4.60020,2470.404,2021-9-13T08:37:47Z
2021-09-13T06:39:30Z,42.805,6.029,13.3000,4.60026,2470.343,2021-9-13T08:40:51Z
2021-09-13T06:42:33Z,42.805,6.029,13.2996,4.60017,2470.343,2021-9-13T08:43:54Z
2021-09-13T06:45:36Z,42.805,6.029,13.2998,4.60029,2470.366,2021-9-13T08:46:57Z
2021-09-13T06:48:39Z,42.805,6.029,13.2996,4.60026,2470.366,2021-9-13T08:50:00Z
2021-09-13T06:51:42Z,42.805,6.029,13.2994,4.60019,2470.357,2021-9-13T08:53:03Z
2021-09-13T06:54:45Z,42.805,6.029,13.2999,4.60025,2470.366,2021-9-13T08:56:06Z
2021-09-13T06:57:48Z,42.805,6.029,13.2993,4.60018,2470.404,2021-9-13T08:59:09Z
2021-09-13T07:00:52Z,42.805,6.029,13.2992,4.60024,2470.404,2021-9-13T09:02:12Z
2021-09-13T07:03:55Z,42.805,6.029,13.3001,4.60027,2470.366,2021-9-13T09:05:15Z
2021-09-13T07:06:58Z,42.805,6.029,13.2997,4.60019,2470.38,2021-9-13T09:08:19Z
2021-09-13T07:10:01Z,42.805,6.029,13.2996,4.60026,2470.343,2021-9-13T09:11:22Z
2021-09-13T07:13:04Z,42.805,6.029,13.2997,4.60031,2470.38,2021-9-13T09:14:25Z
2021-09-13T07:16:07Z,42.805,6.029,13.2996,4.60032,2470.404,2021-9-13T09:17:28Z
2021-09-13T07:19:10Z,42.805,6.029,13.2996,4.60021,2470.366,2021-9-13T09:20:31Z
2021-09-13T07:22:13Z,42.805,6.029,13.2996,4.60041,2470.343,2021-9-13T09:23:34Z
2021-09-13T07:25:17Z,42.805,6.029,13.2993,4.60023,2470.366,2021-9-13T09:26:37Z
2021-09-13T07:28:20Z,42.805,6.029,13.3000,4.60018,2470.399,2021-9-13T09:29:40Z
2021-09-13T07:31:23Z,42.805,6.029,13.2997,4.60026,2470.366,2021-9-13T09:32:44Z
2021-09-13T07:34:26Z,42.805,6.029,13.2998,4.60024,2470.366,2021-9-13T09:35:47Z
2021-09-13T07:37:29Z,42.805,6.029,13.2997,4.60026,2470.366,2021-9-13T09:38:50Z
2021-09-13T07:40:32Z,42.805,6.029,13.2993,4.60029,2470.399,2021-9-13T09:41:53Z
2021-09-13T07:43:35Z,42.805,6.029,13.2997,4.60026,2470.38,2021-9-13T09:44:56Z
2021-09-13T07:46:38Z,42.805,6.029,13.2993,4.60029,2470.39,2021-9-13T09:47:59Z
2021-09-13T07:49:41Z,42.805,6.029,13.2996,4.60024,2470.39,2021-9-13T09:51:02Z
2021-09-13T07:52:45Z,42.805,6.029,13.2994,4.60026,2470.404,2021-9-13T09:54:05Z
2021-09-13T07:55:48Z,42.805,6.029,13.2996,4.60031,2470.39,2021-9-13T09:57:09Z
2021-09-13T07:58:51Z,42.805,6.029,13.2993,4.60019,2470.366,2021-9-13T10:00:12Z
2021-09-13T08:01:54Z,42.805,6.029,13.2993,4.60017,2470.413,2021-9-13T10:03:15Z
2021-09-13T08:04:57Z,42.805,6.029,13.2993,4.60021,2470.39,2021-9-13T10:06:18Z
2021-09-13T08:08:00Z,42.805,6.029,13.2996,4.60021,2470.404,2021-9-13T10:09:21Z
2021-09-13T08:11:03Z,42.805,6.029,13.2999,4.60021,2470.413,2021-9-13T10:12:24Z
2021-09-13T08:14:07Z,42.805,6.029,13.2996,4.60029,2470.366,2021-9-13T10:15:27Z
2021-09-13T08:17:10Z,42.805,6.029,13.2990,4.60015,2470.427,2021-9-13T10:18:30Z
2021-09-13T08:20:13Z,42.805,6.029,13.2998,4.60023,2470.413,2021-9-13T10:21:34Z
2021-09-13T08:23:16Z,42.805,6.029,13.2996,4.60023,2470.413,2021-9-13T10:24:37Z
2021-09-13T08:26:19Z,42.805,6.029,13.2996,4.60012,2470.45,2021-9-13T10:27:40Z
2021-09-13T08:29:22Z,42.805,6.029,13.2994,4.60020,2470.413,2021-9-13T10:30:43Z
2021-09-13T08:32:25Z,42.805,6.029,13.2991,4.60017,2470.404,2021-9-13T10:33:46Z
2021-09-13T08:35:28Z,42.805,6.029,13.2996,4.60031,2470.413,2021-9-13T10:36:49Z
2021-09-13T08:38:32Z,42.805,6.029,13.2992,4.60017,2470.437,2021-9-13T10:39:52Z
2021-09-13T08:41:35Z,42.805,6.029,13.2993,4.60021,2470.413,2021-9-13T10:42:56Z
2021-09-13T08:44:38Z,42.805,6.029,13.2996,4.60028,2470.437,2021-9-13T10:45:59Z
2021-09-13T08:47:41Z,42.805,6.029,13.2996,4.60016,2470.413,2021-9-13T10:49:02Z
2021-09-13T08:50:44Z,42.805,6.029,13.2999,4.60021,2470.437,2021-9-13T10:52:05Z
2021-09-13T08:53:47Z,42.805,6.029,13.2996,4.60024,2470.39,2021-9-13T10:55:08Z
2021-09-13T08:56:50Z,42.805,6.029,13.2999,4.60021,2470.437,2021-9-13T10:58:11Z
2021-09-13T08:59:53Z,42.805,6.029,13.2990,4.60022,2470.427,2021-9-13T11:01:14Z
2021-09-13T09:02:57Z,42.805,6.029,13.3001,4.60020,2470.437,2021-9-13T11:04:17Z
2021-09-13T09:06:00Z,42.805,6.029,13.2993,4.60031,2470.413,2021-9-13T11:07:21Z
2021-09-13T09:09:03Z,42.805,6.029,13.2994,4.60033,2470.474,2021-9-13T11:10:24Z
2021-09-13T09:12:06Z,42.805,6.029,13.2998,4.60029,2470.474,2021-9-13T11:13:27Z
2021-09-13T09:15:09Z,42.805,6.029,13.2998,4.60029,2470.483,2021-9-13T11:16:30Z
2021-09-13T09:18:12Z,42.805,6.029,13.3000,4.60031,2470.46,2021-9-13T11:19:33Z
2021-09-13T09:21:15Z,42.805,6.029,13.2997,4.60026,2470.483,2021-9-13T11:22:36Z
2021-09-13T09:24:18Z,42.805,6.029,13.2993,4.60022,2470.497,2021-9-13T11:25:39Z
2021-09-13T09:27:22Z,42.805,6.029,13.2995,4.60016,2470.483,2021-9-13T11:28:42Z
2021-09-13T09:30:25Z,42.805,6.029,13.2997,4.60024,2470.483,2021-9-13T11:31:46Z
2021-09-13T09:33:28Z,42.805,6.029,13.2995,4.60016,2470.46,2021-9-13T11:34:49Z
2021-09-13T09:36:31Z,42.805,6.029,13.2994,4.60025,2470.46,2021-9-13T11:37:52Z
2021-09-13T09:39:34Z,42.805,6.029,13.2995,4.60025,2470.483,2021-9-13T11:40:55Z
2021-09-13T09:42:37Z,42.805,6.029,13.3000,4.60026,2470.437,2021-9-13T11:43:58Z
2021-09-13T09:45:40Z,42.805,6.029,13.2994,4.60024,2470.497,2021-9-13T11:47:01Z
2021-09-13T09:48:43Z,42.805,6.029,13.2993,4.60025,2470.46,2021-9-13T11:50:04Z
2021-09-13T09:51:47Z,42.805,6.029,13.2996,4.60025,2470.52,2021-9-13T11:53:07Z
2021-09-13T09:54:50Z,42.805,6.029,13.2995,4.60026,2470.497,2021-9-13T11:56:11Z
2021-09-13T09:57:53Z,42.805,6.029,13.2994,4.60021,2470.497,2021-9-13T11:59:14Z
2021-09-13T10:00:56Z,42.805,6.029,13.2999,4.60024,2470.483,2021-9-13T12:02:17Z
2021-09-13T10:03:59Z,42.805,6.029,13.2995,4.60026,2470.46,2021-9-13T12:05:20Z
2021-09-13T10:07:02Z,42.805,6.029,13.2993,4.60026,2470.46,2021-9-13T12:08:23Z
2021-09-13T10:10:05Z,42.805,6.029,13.2990,4.60024,2470.483,2021-9-13T12:11:26Z
2021-09-13T10:13:08Z,42.805,6.029,13.2991,4.60031,2470.46,2021-9-13T12:14:29Z
2021-09-13T10:16:12Z,42.805,6.029,13.2995,4.60025,2470.507,2021-9-13T12:17:32Z
2021-09-13T10:19:15Z,42.805,6.029,13.2993,4.60028,2470.46,2021-9-13T12:20:36Z
2021-09-13T10:22:18Z,42.805,6.029,13.2993,4.60026,2470.46,2021-9-13T12:23:39Z
2021-09-13T10:25:21Z,42.805,6.029,13.2991,4.60019,2470.46,2021-9-13T12:26:42Z
2021-09-13T10:28:24Z,42.805,6.029,13.2998,4.60031,2470.474,2021-9-13T12:29:45Z
2021-09-13T10:31:27Z,42.805,6.029,13.2997,4.60031,2470.474,2021-9-13T12:32:48Z
2021-09-13T10:34:30Z,42.805,6.029,13.2986,4.60019,2470.46,2021-9-13T12:35:51Z
2021-09-13T10:37:34Z,42.805,6.029,13.3000,4.60025,2470.497,2021-9-13T12:38:54Z
2021-09-13T10:40:37Z,42.805,6.029,13.2998,4.60024,2470.483,2021-9-13T12:41:57Z
2021-09-13T10:43:40Z,42.805,6.029,13.2993,4.60015,2470.483,2021-9-13T12:45:01Z
2021-09-13T10:46:43Z,42.805,6.029,13.2996,4.60025,2470.507,2021-9-13T12:48:04Z
2021-09-13T10:49:46Z,42.805,6.029,13.2996,4.60018,2470.507,2021-9-13T12:51:07Z
2021-09-13T10:52:49Z,42.805,6.029,13.2997,4.60017,2470.52,2021-9-13T12:54:10Z
2021-09-13T10:55:52Z,42.805,6.029,13.2990,4.60020,2470.52,2021-9-13T12:57:13Z
2021-09-13T10:58:55Z,42.805,6.029,13.3000,4.60017,2470.483,2021-9-13T13:00:16Z
2021-09-13T11:01:59Z,42.805,6.029,13.2993,4.60017,2470.483,2021-9-13T13:03:19Z
2021-09-13T11:05:02Z,42.805,6.029,13.2999,4.60036,2470.52,2021-9-13T13:06:22Z
2021-09-13T11:08:05Z,42.805,6.029,13.2993,4.60022,2470.497,2021-9-13T13:09:26Z
2021-09-13T11:11:08Z,42.805,6.029,13.2998,4.60029,2470.507,2021-9-13T13:12:29Z
2021-09-13T11:14:11Z,42.805,6.029,13.2993,4.60016,2470.497,2021-9-13T13:15:32Z
2021-09-13T11:17:14Z,42.805,6.029,13.3000,4.60021,2470.52,2021-9-13T13:18:35Z
2021-09-13T11:20:17Z,42.805,6.029,13.2995,4.60033,2470.474,2021-9-13T13:21:38Z
2021-09-13T11:23:20Z,42.805,6.029,13.2993,4.60026,2470.52,2021-9-13T13:24:41Z
2021-09-13T11:26:24Z,42.805,6.029,13.2992,4.60023,2470.507,2021-9-13T13:27:44Z
2021-09-13T11:29:27Z,42.805,6.029,13.2992,4.60024,2470.497,2021-9-13T13:30:47Z
2021-09-13T11:32:30Z,42.805,6.029,13.2991,4.60024,2470.483,2021-9-13T13:33:51Z
2021-09-13T11:35:33Z,42.805,6.029,13.3000,4.60026,2470.497,2021-9-13T13:36:54Z
2021-09-13T11:38:36Z,42.805,6.029,13.2990,4.60016,2470.507,2021-9-13T13:39:57Z
2021-09-13T11:41:39Z,42.805,6.029,13.3001,4.60025,2470.483,2021-9-13T13:43:00Z
2021-09-13T11:44:42Z,42.805,6.029,13.2993,4.60030,2470.483,2021-9-13T13:46:03Z
2021-09-13T11:47:45Z,42.805,6.029,13.2991,4.60018,2470.47,2021-9-13T13:49:06Z
2021-09-13T11:50:49Z,42.805,6.029,13.2997,4.60021,2470.507,2021-9-13T13:52:09Z
2021-09-13T11:53:52Z,42.805,6.029,13.2994,4.60020,2470.474,2021-9-13T13:55:12Z
2021-09-13T11:56:55Z,42.805,6.029,13.3002,4.60021,2470.53,2021-9-13T13:58:16Z
2021-09-13T11:59:58Z,42.805,6.029,13.2994,4.60023,2470.497,2021-9-13T14:01:19Z
2021-09-13T12:03:01Z,42.805,6.029,13.2993,4.60014,2470.497,2021-9-13T14:04:22Z
2021-09-13T12:06:04Z,42.805,6.029,13.2990,4.60018,2470.507,2021-9-13T14:07:25Z
2021-09-13T12:09:07Z,42.805,6.029,13.2996,4.60022,2470.507,2021-9-13T14:10:28Z
2021-09-13T12:12:10Z,42.805,6.029,13.2993,4.60019,2470.544,2021-9-13T14:13:31Z
2021-09-13T12:15:14Z,42.805,6.029,13.2993,4.60026,2470.567,2021-9-13T14:16:34Z
2021-09-13T12:18:17Z,42.805,6.029,13.2996,4.60028,2470.483,2021-9-13T14:19:38Z
2021-09-13T12:21:20Z,42.805,6.029,13.2998,4.60031,2470.483,2021-9-13T14:22:41Z
2021-09-13T12:24:23Z,42.805,6.029,13.2997,4.60026,2470.483,2021-9-13T14:25:44Z
2021-09-13T12:27:26Z,42.805,6.029,13.3000,4.60032,2470.53,2021-9-13T14:28:47Z
2021-09-13T12:30:29Z,42.805,6.029,13.3002,4.60028,2470.483,2021-9-13T14:31:50Z
2021-09-13T12:33:32Z,42.805,6.029,13.3004,4.60036,2470.507,2021-9-13T14:34:53Z
2021-09-13T12:36:35Z,42.805,6.029,13.2996,4.60019,2470.497,2021-9-13T14:37:56Z
2021-09-13T12:39:39Z,42.805,6.029,13.2994,4.60015,2470.497,2021-9-13T14:40:59Z
2021-09-13T12:42:42Z,42.805,6.029,13.2995,4.60027,2470.507,2021-9-13T14:44:03Z
2021-09-13T12:45:45Z,42.805,6.029,13.2992,4.60019,2470.483,2021-9-13T14:47:06Z
2021-09-13T12:48:48Z,42.805,6.029,13.2998,4.60021,2470.437,2021-9-13T14:50:09Z
2021-09-13T12:51:51Z,42.805,6.029,13.2997,4.60031,2470.483,2021-9-13T14:53:12Z
2021-09-13T12:54:54Z,42.805,6.029,13.2998,4.60019,2470.507,2021-9-13T14:56:15Z
2021-09-13T12:57:57Z,42.805,6.029,13.2996,4.60029,2470.52,2021-9-13T14:59:18Z
2021-09-13T13:01:01Z,42.805,6.029,13.2998,4.60027,2470.507,2021-9-13T15:02:21Z
2021-09-13T13:04:04Z,42.805,6.029,13.2996,4.60024,2470.46,2021-9-13T15:05:24Z
2021-09-13T13:07:07Z,42.805,6.029,13.3004,4.60033,2470.507,2021-9-13T15:08:28Z
2021-09-13T13:10:10Z,42.805,6.029,13.2998,4.60025,2470.46,2021-9-13T15:11:31Z
2021-09-13T13:13:13Z,42.805,6.029,13.2998,4.60030,2470.46,2021-9-13T15:14:34Z
2021-09-13T13:16:16Z,42.805,6.029,13.2996,4.60022,2470.52,2021-9-13T15:17:37Z
2021-09-13T13:19:19Z,42.805,6.029,13.2992,4.60029,2470.52,2021-9-13T15:20:40Z
2021-09-13T13:22:22Z,42.805,6.029,13.2995,4.60020,2470.483,2021-9-13T15:23:43Z
2021-09-13T13:25:26Z,42.805,6.029,13.3003,4.60026,2470.507,2021-9-13T15:26:46Z
2021-09-13T13:28:29Z,42.805,6.029,13.2993,4.60015,2470.497,2021-9-13T15:29:49Z
2021-09-13T13:31:32Z,42.805,6.029,13.2989,4.60021,2470.52,2021-9-13T15:32:53Z
2021-09-13T13:34:35Z,42.805,6.029,13.2999,4.60029,2470.474,2021-9-13T15:35:56Z
2021-09-13T13:37:38Z,42.805,6.029,13.2996,4.60022,2470.46,2021-9-13T15:38:59Z
2021-09-13T13:40:41Z,42.805,6.029,13.2994,4.60026,2470.474,2021-9-13T15:42:02Z
2021-09-13T13:43:44Z,42.805,6.029,13.3000,4.60034,2470.483,2021-9-13T15:45:05Z
2021-09-13T13:46:47Z,42.805,6.029,13.2999,4.60033,2470.474,2021-9-13T15:48:08Z
2021-09-13T13:49:51Z,42.805,6.029,13.2997,4.60027,2470.507,2021-9-13T15:51:11Z
2021-09-13T13:52:54Z,42.805,6.029,13.2991,4.60024,2470.46,2021-9-13T15:54:14Z
2021-09-13T13:55:57Z,42.805,6.029,13.3004,4.60039,2470.46,2021-9-13T15:57:18Z
2021-09-13T13:59:00Z,42.805,6.029,13.2993,4.60022,2470.483,2021-9-13T16:00:21Z
2021-09-13T14:02:03Z,42.805,6.029,13.2993,4.60022,2470.437,2021-9-13T16:03:24Z
2021-09-13T14:05:06Z,42.805,6.029,13.2999,4.60033,2470.474,2021-9-13T16:06:27Z
2021-09-13T14:08:09Z,42.805,6.029,13.2996,4.60029,2470.483,2021-9-13T16:09:30Z
2021-09-13T14:11:12Z,42.805,6.029,13.2997,4.60036,2470.46,2021-9-13T16:12:33Z
2021-09-13T14:14:16Z,42.805,6.029,13.2996,4.60031,2470.483,2021-9-13T16:15:36Z
2021-09-13T14:17:19Z,42.805,6.029,13.2998,4.60031,2470.413,2021-9-13T16:18:39Z
2021-09-13T14:20:22Z,42.805,6.029,13.2991,4.60036,2470.483,2021-9-13T16:21:43Z
2021-09-13T14:23:25Z,42.805,6.029,13.2997,4.60029,2470.52,2021-9-13T16:24:46Z
2021-09-13T14:26:28Z,42.805,6.029,13.3000,4.60021,2470.497,2021-9-13T16:27:49Z
2021-09-13T14:29:31Z,42.805,6.029,13.2997,4.60040,2470.46,2021-9-13T16:30:52Z
2021-09-13T14:32:34Z,42.805,6.029,13.2996,4.60027,2470.45,2021-9-13T16:33:55Z
2021-09-13T14:35:37Z,42.805,6.029,13.2993,4.60029,2470.46,2021-9-13T16:36:58Z
2021-09-13T14:38:41Z,42.805,6.029,13.2994,4.60031,2470.46,2021-9-13T16:40:01Z
2021-09-13T14:41:44Z,42.805,6.029,13.2998,4.60028,2470.474,2021-9-13T16:43:05Z
2021-09-13T14:44:47Z,42.805,6.029,13.2999,4.60033,2470.497,2021-9-13T16:46:08Z
2021-09-13T14:47:50Z,42.805,6.029,13.2998,4.60031,2470.46,2021-9-13T16:49:11Z
2021-09-13T14:50:53Z,42.805,6.029,13.2996,4.60026,2470.474,2021-9-13T16:52:14Z
2021-09-13T14:53:56Z,42.805,6.029,13.2992,4.60024,2470.497,2021-9-13T16:55:17Z
2021-09-13T14:56:59Z,42.805,6.029,13.2993,4.60024,2470.474,2021-9-13T16:58:20Z
2021-09-13T15:00:02Z,42.805,6.029,13.2995,4.60017,2470.474,2021-9-13T17:01:23Z
2021-09-13T15:03:06Z,42.805,6.029,13.2996,4.60029,2470.437,2021-9-13T17:04:26Z
2021-09-13T15:06:09Z,42.805,6.029,13.2996,4.60045,2470.437,2021-9-13T17:07:30Z
2021-09-13T15:09:12Z,42.805,6.029,13.2991,4.60036,2470.46,2021-9-13T17:10:33Z
2021-09-13T15:12:15Z,42.805,6.029,13.2996,4.60026,2470.46,2021-9-13T17:13:36Z
2021-09-13T15:15:18Z,42.805,6.029,13.2993,4.60024,2470.45,2021-9-13T17:16:39Z